Powrót do katalogu

COSMOS 1275 DEB

LostPO
NORAD 42222·DEBRIS·🇷🇺 Russia

Wystrzelony Jun 4, 1981 z Plesetsk Cosmodrome

Loading…

Następne Przeloty (najbliższe 24 godziny)

TLE

NieaktualneSource: Space-Track

Epoka: Jun 10, 2024, 21:30 UTC

1 42222U 81053UN  24162.89616937  .00005579  00000-0  32641-2 0  9997
2 42222  82.9753  14.1243 0064435 188.8844 171.1195 14.07111834 96815

Śledź COSMOS 1275 DEB w czasie rzeczywistym z AllMySat

Download on the App Store